Location: Mentone
(34.5413°N, 85.5351°W)
Time: 01:22:56
(UTC-06:00)

Cosmos 2026 Rocket - Visible Passes

Search period start: 16 December 2017 00:00
Search period end: 26 December 2017 00:00
Orbit: 940 x 1000 km, 82.9° (Epoch: 16 December)

Date Brightness Start Highest point End Pass type
(mag) Time Alt. Az. Time Alt. Az. Time Alt. Az.
16 Dec 4.5 05:04:04 10° S 05:10:11 62° E 05:16:25 10° NNE visible
16 Dec 6.4 17:49:31 10° NW 17:54:24 24° W 17:59:15 10° SW visible
17 Dec 6.8 03:46:49 10° ESE 03:49:36 13° E 03:52:26 10° NE visible
17 Dec 3.9 05:27:48 10° SSW 05:34:02 73° W 05:40:23 10° N visible
17 Dec 6.9 18:15:33 10° WNW 18:17:52 12° W 18:20:10 10° WSW visible
18 Dec 6.0 04:08:05 10° SE 04:13:05 26° E 04:18:09 10° NNE visible
18 Dec 4.4 05:52:14 10° SSW 05:58:02 40° WNW 06:03:57 10° N visible
18 Dec 4.9 16:51:08 10° NNW 16:57:20 57° W 17:03:26 10° SSW visible
19 Dec 4.9 04:30:46 10° SSE 04:36:43 48° E 04:42:46 10° NNE visible
19 Dec 5.1 06:17:29 10° WSW 06:22:13 22° WNW 06:27:00 10° NNW visible
19 Dec 6.0 17:15:35 10° NNW 17:21:01 31° W 17:26:22 10° SSW visible
20 Dec 4.0 04:54:14 10° S 05:00:30 87° E 05:06:53 10° N visible
20 Dec 6.7 17:40:50 10° NW 17:44:32 16° W 17:48:13 10° WSW visible
21 Dec 6.3 03:35:22 10° SE 03:39:43 20° E 03:44:06 10° NE visible
21 Dec 4.1 05:18:21 10° SSW 05:24:26 51° W 05:30:38 10° N visible
22 Dec 5.3 03:57:37 10° SSE 04:03:17 37° E 04:09:02 10° NNE visible
22 Dec 4.8 05:43:13 10° SW 05:48:32 28° WNW 05:53:55 10° NNW visible
23 Dec 4.2 04:20:47 10° S 04:27:00 69° E 04:33:20 10° NNE visible
23 Dec 5.4 06:09:17 10° WSW 06:12:49 15° WNW 06:16:23 10° NW visible
23 Dec 6.6 17:06:36 10° NW 17:11:10 21° W 17:15:42 10° SW visible
24 Dec 6.5 03:02:58 10° ESE 03:06:21 15° E 03:09:46 10° NE visible
24 Dec 3.9 04:44:37 10° SSW 04:50:52 67° W 04:57:13 10° N visible
24 Dec 7.1 17:33:30 10° WNW 17:34:36 10° W 17:35:42 10° W visible
25 Dec 5.7 03:24:36 10° SE 03:29:52 29° E 03:35:11 10° NNE visible
25 Dec 4.5 05:09:10 10° SW 05:14:54 36° WNW 05:20:43 10° NNW visible
